Content
SEND FEEDBACK

Daily
Averages
Monthly
Summary
Thailand

BANGKOK, THAILAND


Home > Asia > Thailand
Elevation: 66 feet     Latitude: 13 44N     Longitude: 100 34E

WEATHER
 
SELECT A DAY
Number of Records: 235,328;   Date Range: 7/1/96 - 7/26/14
 
SHARE

PRINT THIS DATA

[ ← Previous Day ]
WEATHER ALMANAC - SEPTEMBER 5, 2013
[ Next Day → ]
[ °C ]   °F
Weather ElementAverageHighLow
Temperature87.5 °F95 °F (1:30 pm)78.8 °F (11:30 pm)
Dewpoint74.1 °F78.8 °F (8:00 am)69.8 °F (1:00 pm)
Humidity65.5 %89 % (11:30 pm)46 % (1:00 pm)
Barometer29.74 in29.83 in (10:30 pm)29.65 in (3:30 pm)
Wind Speed5.6 mph11.5 mph (12:00 pm)
Weather ElementAverage
Visibility6.1 mi
Wind DirectionWSW (244.9 °)

Weather ElementTotal
Precipitation---
Cooling Degree Days21.9 (Base 65)
Growing Degree Days36.9 (Base 50)
Averaged from 49 records on September 5, 2013
WEATHER CONDITIONS BREAKOUT
WIND DIRECTION BREAKOUT
WEATHER BY HOUR - SEPTEMBER 5, 2013
[ °C ]   °F
Local TimeTemperatureDewpointHumidityBarometerVisibilityWind DirectionWind SpeedGust SpeedPrecipitationEventsConditions
12:30 AM86.0 °F73.4 °F66 %29.77 in6.2 miWSW (240°)4.6 mphMostly Cloudy
1:00 AM86.0 °F73.4 °F66 %29.77 in6.2 miWest (270°)5.8 mphMostly Cloudy
1:30 AM86.0 °F73.4 °F66 %29.77 in6.2 miSSW (210°)3.5 mphMostly Cloudy
2:00 AM84.2 °F73.4 °F70 %29.74 in6.2 miWSW (240°)3.5 mphMostly Cloudy
2:30 AM84.2 °F75.2 °F74 %29.74 in6.2 miSSW (210°)3.5 mphMostly Cloudy
3:00 AM84.2 °F75.2 °F74 %29.74 in6.2 miWSW (240°)3.5 mphMostly Cloudy
3:30 AM84.2 °F75.2 °F74 %29.71 in6.2 miSouth (180°)2.3 mphMostly Cloudy
4:00 AM86.0 °F77.0 °F74 %29.71 in6.2 miSouth (190°)2.3 mphMostly Cloudy
4:30 AM84.2 °F77.0 °F79 %29.71 in6.2 miSSW (210°)4.6 mphMostly Cloudy
5:00 AM84.2 °F77.0 °F79 %29.71 in6.2 miSW (230°)3.5 mphMostly Cloudy
5:30 AM86.0 °F77.0 °F74 %29.71 in6.2 miWNW (300°)5.8 mphMostly Cloudy
6:00 AM84.2 °F77.0 °F79 %29.71 in6.2 miWNW (300°)3.5 mphMostly Cloudy
6:30 AM84.2 °F77.0 °F79 %29.71 in6.2 miWest (270°)2.3 mphMostly Cloudy
7:00 AM84.0 °F78.0 °F77 %29.74 in6.0 miWest (270°)3.5 mphScattered Clouds
7:00 AM84.2 °F77.0 °F79 %29.71 in6.2 miWest (270°)3.5 mphMostly Cloudy
7:30 AM84.2 °F77.0 °F79 %29.74 in6.2 miWNW (290°)5.8 mphMostly Cloudy
8:00 AM84.2 °F78.8 °F84 %29.74 in6.2 miWest (280°)3.5 mphMostly Cloudy
8:30 AM86.0 °F77.0 °F74 %29.77 in6.2 miWest (280°)5.8 mphMostly Cloudy
9:00 AM87.8 °F75.2 °F66 %29.77 in6.2 miWNW (300°)3.5 mphMostly Cloudy
9:30 AM87.8 °F75.2 °F66 %29.77 in6.2 miCalmMostly Cloudy
10:00 AM89.6 °F73.4 °F59 %29.77 in6.2 miWest (270°)5.8 mphMostly Cloudy
10:30 AM89.6 °F75.2 °F62 %29.77 in6.2 miWest (270°)5.8 mphMostly Cloudy
11:00 AM91.4 °F71.6 °F52 %29.77 in6.2 miWest (270°)8.1 mphMostly Cloudy
11:30 AM91.4 °F71.6 °F52 %29.77 in6.2 miWest (270°)6.9 mphMostly Cloudy
12:00 PM93.2 °F71.6 °F49 %29.77 in6.2 miWest (270°)11.5 mphMostly Cloudy
12:30 PM93.2 °F71.6 °F49 %29.77 in6.2 miWNW (300°)6.9 mphMostly Cloudy
1:00 PM93.2 °F69.8 °F46 %29.74 in6.2 miWNW (300°)3.5 mphMostly Cloudy
1:30 PM95.0 °F71.6 °F47 %29.74 in6.2 miWNW (300°)9.2 mphMostly Cloudy
2:00 PM95.0 °F71.6 °F47 %29.71 in6.2 miWest (280°)8.1 mphMostly Cloudy
2:30 PM95.0 °F71.6 °F47 %29.68 in6.2 miWest (280°)4.6 mphMostly Cloudy
3:00 PM95.0 °F71.6 °F47 %29.68 in6.2 miWest (270°)4.6 mphMostly Cloudy
3:30 PM95.0 °F73.4 °F49 %29.65 in6.2 miWest (270°)3.5 mphMostly Cloudy
4:00 PM95.0 °F73.4 °F49 %29.65 in6.2 miWSW (240°)3.5 mphMostly Cloudy
4:30 PM95.0 °F73.4 °F49 %29.65 in6.2 miWest (270°)2.3 mphMostly Cloudy
5:00 PM95.0 °F73.4 °F49 %29.65 in6.2 miWest (270°)5.8 mphMostly Cloudy
5:30 PM95.0 °F73.4 °F49 %29.65 in6.2 miWSW (240°)9.2 mphMostly Cloudy
6:00 PM93.2 °F73.4 °F52 %29.68 in6.2 miWSW (240°)9.2 mphMostly Cloudy
6:30 PM91.4 °F73.4 °F55 %29.68 in6.2 miWSW (250°)9.2 mphMostly Cloudy
7:00 PM88.0 °F72.0 °F50 %29.75 in5.0 miWNW (300°)8.1 mphRain-ThunderstormThunderstorms and Rain
7:00 PM87.8 °F71.6 °F58 %29.68 in5.0 miWNW (300°)8.1 mphRain-ThunderstormLight Thunderstorms and Rain
7:30 PM84.2 °F73.4 °F70 %29.74 in5.0 miWNW (300°)10.4 mphRain-ThunderstormLight Thunderstorms and Rain
8:00 PM82.4 °F73.4 °F74 %29.74 in5.6 miWNW (300°)11.5 mphRainLight Rain
8:30 PM80.6 °F73.4 °F79 %29.77 in5.6 miWNW (300°)11.5 mphRainLight Rain
9:00 PM80.6 °F73.4 °F79 %29.80 in6.2 miNNW (330°)6.9 mphMostly Cloudy
9:30 PM80.6 °F73.4 °F79 %29.80 in6.2 miNNW (330°)6.9 mphMostly Cloudy
10:00 PM80.6 °F73.4 °F79 %29.80 in6.2 miNorth (10°)4.6 mphMostly Cloudy
10:30 PM80.6 °F73.4 °F79 %29.83 in6.2 miNE (50°)5.8 mphMostly Cloudy
11:00 PM80.6 °F75.2 °F84 %29.83 in6.2 miNE (50°)4.6 mphMostly Cloudy
11:30 PM78.8 °F75.2 °F89 %29.83 in5.0 miEast (90°)5.8 mphRainLight Rain
Hourly data recorded from VTBD, located miles away from Bangkok, Thailand







STORIES FROM OUR PARTNERS